{"data":{"norad_id":45437,"epoch":"2026-09-20T01:36:10.732896Z","epoch_age_seconds":52092,"freshness":"FRESH","line1":"1 45437U 20020P   26263.06679089 -.00000387  00000+0 -11275-2 0  9998","line2":"2 45437  87.8974   2.2042 0001892  94.2164 265.9180 13.11415223315221","mean_motion":13.11415223,"eccentricity":0.0001892,"inclination_deg":87.8974,"raan_deg":2.2042,"arg_perigee_deg":94.2164,"mean_anomaly_deg":265.918,"bstar":-0.0011275,"rev_number":31522,"period_min":109.80503922364,"perigee_km":1216.2522173332,"apogee_km":1219.1264780232,"semimajor_km":7595.8263476782,"source":"CELESTRAK","updated_at":"2026-09-20T09:00:44.554662Z"}}